Вернуться в каталог

GGSE 4

АктивенНавигацияLEO
NORAD 2828·PAYLOAD·🇺🇸 United States

Запущен May 31, 1967 с Vandenberg Space Force Base

Loading…

Ближайшие Пролёты (ближайшие 24 часа)

TLE

СвежийSource: Space-Track

Эпоха: Sep 14, 2026, 14:06 UTC

1 02828U 67053C   26257.58797089  .00000024  00000-0  54593-4 0  9992
2 02828  69.9692 230.8737 0005889  34.4891 325.6596 13.98102226 20655

Отслеживайте GGSE 4 в реальном времени с AllMySat

Download on the App Store